When you browse on this site, cookies collect data to enhance your experience and personalize the content and advertising you see.
Visit our Privacy Policy to learn more. By continuing to use the site, you agree to this use of cookies and data.
  • In Österreich
  • Länderverzeichnis
  • Für 7 Tage
  • Wassertemperatur
  • Satellitenkarten
  • Wetterkarte
  • News
  • Widgets
  • user-avatar
    Anmelden

    Stündliche Wetter Rop Wiang

    Heute, 19 Februar, Dienstag

    Zeit Temperatur Niederschläge Wind Luftdruck Luftfeuchtigkeit
    00:00 +22°C° 0 mm 1 m/S 725 mmHg 38%
    01:00 +19°C° 0 mm 0 m/S 725 mmHg 44%
    02:00 +19°C° 0 mm 0 m/S 725 mmHg 45%
    03:00 +18°C° 0 mm 0 m/S 725 mmHg 46%
    04:00 +20°C° 0 mm 1 m/S 725 mmHg 47%
    05:00 +17°C° 0 mm 0 m/S 725 mmHg 49%
    06:00 +17°C° 0 mm 0 m/S 725 mmHg 50%
    07:00 +18°C° 0 mm 0 m/S 725 mmHg 57%
    08:00 +21°C° 0 mm 0 m/S 726 mmHg 49%
    09:00 +25°C° 0 mm 0 m/S 727 mmHg 41%
    10:00 +29°C° 0 mm 0 m/S 727 mmHg 34%
    11:00 +32°C° 0 mm 1 m/S 727 mmHg 31%
    12:00 +33°C° 0 mm 1 m/S 726 mmHg 28%
    13:00 +35°C° 0 mm 1 m/S 727 mmHg 29%
    14:00 +35°C° 0 mm 1 m/S 726 mmHg 28%
    15:00 +35°C° 0 mm 1 m/S 725 mmHg 26%
    16:00 +35°C° 0 mm 1 m/S 725 mmHg 25%
    17:00 +32°C° 0 mm 1 m/S 725 mmHg 29%
    18:00 +30°C° 0 mm 1 m/S 725 mmHg 34%
    19:00 +26°C° 0 mm 0 m/S 725 mmHg 39%
    20:00 +25°C° 0 mm 0 m/S 726 mmHg 41%
    21:00 +24°C° 0 mm 0 m/S 727 mmHg 43%
    22:00 +23°C° 0 mm 0 m/S 727 mmHg 45%
    23:00 +22°C° 0 mm 0 m/S 727 mmHg 46%

    Morgen, 20 Februar, Mittwoch

    Zeit Temperatur Niederschläge Wind Luftdruck Luftfeuchtigkeit
    00:00 +21°C° 0 mm 0 m/S 727 mmHg 48%
    01:00 +21°C° 0 mm 0 m/S 727 mmHg 49%
    02:00 +20°C° 0 mm 0 m/S 727 mmHg 51%
    03:00 +20°C° 0 mm 0 m/S 727 mmHg 52%
    04:00 +19°C° 0 mm 0 m/S 727 mmHg 53%
    05:00 +19°C° 0 mm 0 m/S 727 mmHg 54%
    06:00 +20°C° 0 mm 1 m/S 727 mmHg 56%
    07:00 +20°C° 0 mm 1 m/S 728 mmHg 57%
    08:00 +23°C° 0 mm 1 m/S 728 mmHg 49%
    09:00 +25°C° 0 mm 0 m/S 729 mmHg 41%
    10:00 +29°C° 0 mm 0 m/S 730 mmHg 33%
    11:00 +31°C° 0 mm 0 m/S 729 mmHg 29%
    12:00 +33°C° 0 mm 0 m/S 729 mmHg 25%
    13:00 +37°C° 0 mm 1 m/S 728 mmHg 21%
    14:00 +37°C° 0 mm 1 m/S 727 mmHg 20%
    15:00 +37°C° 0 mm 1 m/S 726 mmHg 19%
    16:00 +36°C° 0 mm 1 m/S 725 mmHg 18%
    17:00 +34°C° 0 mm 1 m/S 726 mmHg 22%
    18:00 +31°C° 0 mm 1 m/S 726 mmHg 26%
    19:00 +26°C° 0 mm 0 m/S 726 mmHg 29%
    20:00 +25°C° 0 mm 0 m/S 727 mmHg 31%
    21:00 +24°C° 0 mm 0 m/S 727 mmHg 33%
    22:00 +25°C° 0 mm 1 m/S 728 mmHg 35%
    23:00 +25°C° 0 mm 1 m/S 728 mmHg 37%

    übermorgen, 21 Februar, Donnerstag

    Zeit Temperatur Niederschläge Wind Luftdruck Luftfeuchtigkeit
    00:00 +22°C° 0 mm 0 m/S 728 mmHg 39%
    01:00 +21°C° 0 mm 0 m/S 728 mmHg 41%
    02:00 +20°C° 0 mm 0 m/S 727 mmHg 42%
    03:00 +22°C° 0 mm 1 m/S 727 mmHg 44%
    04:00 +21°C° 0 mm 1 m/S 727 mmHg 45%
    05:00 +21°C° 0 mm 1 m/S 727 mmHg 47%
    06:00 +20°C° 0 mm 1 m/S 727 mmHg 48%
    07:00 +20°C° 0 mm 1 m/S 728 mmHg 49%
    08:00 +24°C° 0 mm 1 m/S 729 mmHg 42%
    09:00 +25°C° 0 mm 0 m/S 729 mmHg 35%
    10:00 +29°C° 0 mm 0 m/S 730 mmHg 28%
    11:00 +32°C° 0 mm 0 m/S 729 mmHg 24%
    12:00 +35°C° 0 mm 0 m/S 728 mmHg 21%
    13:00 +37°C° 0 mm 0 m/S 728 mmHg 17%
    14:00 +37°C° 0 mm 0 m/S 727 mmHg 17%
    15:00 +36°C° 0 mm 0 m/S 726 mmHg 16%
    16:00 +39°C° 0 mm 1 m/S 725 mmHg 16%
    17:00 +35°C° 0 mm 1 m/S 725 mmHg 20%
    18:00 +32°C° 0 mm 1 m/S 725 mmHg 23%
    19:00 +27°C° 0 mm 0 m/S 725 mmHg 27%
    20:00 +28°C° 0 mm 1 m/S 726 mmHg 29%
    21:00 +27°C° 0 mm 1 m/S 726 mmHg 31%
    22:00 +26°C° 0 mm 1 m/S 727 mmHg 32%
    23:00 +25°C° 0 mm 1 m/S 726 mmHg 34%

    22 Februar, Freitag

    Zeit Temperatur Niederschläge Wind Luftdruck Luftfeuchtigkeit
    00:00 +23°C° 0 mm 0 m/S 726 mmHg 35%
    01:00 +22°C° 0 mm 0 m/S 726 mmHg 36%
    02:00 +21°C° 0 mm 0 m/S 725 mmHg 38%
    03:00 +21°C° 0 mm 0 m/S 725 mmHg 39%
    04:00 +22°C° 0 mm 1 m/S 725 mmHg 41%
    05:00 +21°C° 0 mm 1 m/S 725 mmHg 42%
    06:00 +21°C° 0 mm 1 m/S 725 mmHg 44%
    07:00 +20°C° 0 mm 1 m/S 726 mmHg 45%
    08:00 +24°C° 0 mm 1 m/S 727 mmHg 39%
    09:00 +26°C° 0 mm 0 m/S 727 mmHg 33%
    10:00 +30°C° 0 mm 0 m/S 728 mmHg 26%
    11:00 +32°C° 0 mm 0 m/S 727 mmHg 23%
    12:00 +35°C° 0 mm 0 m/S 726 mmHg 20%
    13:00 +37°C° 0 mm 0 m/S 726 mmHg 16%
    14:00 +40°C° 0 mm 1 m/S 725 mmHg 16%
    15:00 +40°C° 0 mm 1 m/S 724 mmHg 15%
    16:00 +39°C° 0 mm 1 m/S 723 mmHg 15%
    17:00 +35°C° 0 mm 1 m/S 723 mmHg 19%
    18:00 +33°C° 0 mm 1 m/S 723 mmHg 23%
    19:00 +28°C° 0 mm 0 m/S 724 mmHg 26%
    20:00 +27°C° 0 mm 0 m/S 724 mmHg 28%
    21:00 +26°C° 0 mm 0 m/S 725 mmHg 30%
    22:00 +25°C° 0 mm 0 m/S 725 mmHg 32%
    23:00 +24°C° 0 mm 0 m/S 725 mmHg 34%

    23 Februar, Samstag

    Zeit Temperatur Niederschläge Wind Luftdruck Luftfeuchtigkeit
    00:00 +23°C° 0 mm 0 m/S 725 mmHg 35%
    01:00 +22°C° 0 mm 0 m/S 725 mmHg 37%
    02:00 +22°C° 0 mm 0 m/S 724 mmHg 37%
    03:00 +21°C° 0 mm 0 m/S 724 mmHg 38%
    04:00 +22°C° 0 mm 1 m/S 724 mmHg 39%
    05:00 +22°C° 0 mm 1 m/S 724 mmHg 40%
    06:00 +21°C° 0 mm 1 m/S 725 mmHg 41%
    07:00 +19°C° 0 mm 0 m/S 725 mmHg 42%
    08:00 +23°C° 0 mm 0 m/S 726 mmHg 36%
    09:00 +27°C° 0 mm 0 m/S 727 mmHg 30%
    10:00 +31°C° 0 mm 0 m/S 727 mmHg 24%
    11:00 +33°C° 0 mm 0 m/S 726 mmHg 21%
    12:00 +37°C° 0 mm 1 m/S 726 mmHg 18%
    13:00 +40°C° 0 mm 1 m/S 725 mmHg 15%
    14:00 +40°C° 0 mm 1 m/S 724 mmHg 15%
    15:00 +40°C° 0 mm 1 m/S 723 mmHg 14%
    16:00 +40°C° 0 mm 1 m/S 722 mmHg 14%
    17:00 +36°C° 0 mm 1 m/S 723 mmHg 17%
    18:00 +33°C° 0 mm 1 m/S 723 mmHg 21%
    19:00 +29°C° 0 mm 0 m/S 723 mmHg 25%
    20:00 +27°C° 0 mm 0 m/S 724 mmHg 26%
    21:00 +26°C° 0 mm 0 m/S 724 mmHg 28%
    22:00 +25°C° 0 mm 0 m/S 725 mmHg 30%
    23:00 +25°C° 0 mm 0 m/S 725 mmHg 31%

    24 Februar, Sonntag

    Zeit Temperatur Niederschläge Wind Luftdruck Luftfeuchtigkeit
    00:00 +24°C° 0 mm 0 m/S 725 mmHg 33%
    01:00 +23°C° 0 mm 0 m/S 724 mmHg 34%
    02:00 +22°C° 0 mm 0 m/S 724 mmHg 35%
    03:00 +22°C° 0 mm 0 m/S 724 mmHg 36%
    04:00 +23°C° 0 mm 1 m/S 724 mmHg 38%
    05:00 +23°C° 0 mm 1 m/S 724 mmHg 39%
    06:00 +20°C° 0 mm 0 m/S 725 mmHg 40%
    07:00 +20°C° 0 mm 0 m/S 725 mmHg 42%
    08:00 +24°C° 0 mm 0 m/S 726 mmHg 36%
    09:00 +28°C° 0 mm 0 m/S 726 mmHg 29%
    10:00 +31°C° 0 mm 0 m/S 727 mmHg 23%
    11:00 +33°C° 0 mm 0 m/S 726 mmHg 21%
    12:00 +37°C° 0 mm 1 m/S 725 mmHg 18%
    13:00 +40°C° 0 mm 1 m/S 725 mmHg 16%
    14:00 +40°C° 0 mm 1 m/S 724 mmHg 15%
    15:00 +40°C° 0 mm 1 m/S 723 mmHg 15%
    16:00 +40°C° 0 mm 1 m/S 722 mmHg 15%
    17:00 +36°C° 0 mm 1 m/S 722 mmHg 18%
    18:00 +34°C° 0 mm 1 m/S 723 mmHg 22%
    19:00 +29°C° 0 mm 0 m/S 723 mmHg 25%
    20:00 +28°C° 0 mm 0 m/S 723 mmHg 27%
    21:00 +27°C° 0 mm 0 m/S 724 mmHg 29%
    22:00 +26°C° 0 mm 0 m/S 724 mmHg 31%
    23:00 +25°C° 0 mm 0 m/S 724 mmHg 32%
    Mehr zeigen